Starlink 4758

operational
NORAD ID: 53820 Int'l Des: 2022-114 Owner: SPXS Country: US Constellation: starlink
LEOCIRCULAR

Starlink 4758について

説明を読み込み中...

リアルタイム位置

3D地球を読み込み中...

次回通過

高度履歴

Altitude vs Time

uPlot chart will show altitude changes over time

軌道要素

1 53820U 22114C 25305.61700167 .00001264 00000-0 97508-4 0 9997
2 53820 53.2165 159.2824 0001233 134.5127 225.5967 15.08828663173492
Epoch: Nov 1, 2025 • Age: 16 hours

現在のステータス

高度 542.5 km
速度 7.60 km/s
衛星直下点 35.71°N, 43.1°E
打ち上げ日 Sep 19, 2022
運用期間 3.1 years
タイプ internet

技術仕様

分類 Payload
質量 305.00 kg
乾燥質量 290.00 kg
総質量 305.00 kg
長さ 0.20 m
直径 2.80 m
スパン 9.00 m
形状 Box + pan
製造者 SPXS
バスタイプ Starlink
フェーズステータス In Orbit
所有者/国 SPXS/US

大規模コンステレーション

Loading constellations...